STARLINK-35958

Last updated on Mon Dec 15 2025 00:02:12 GMT+0000 (Coordinated Universal Time)

1 66822U 25280B 25348.25003472 -.01715157 00000+0 -13197-1 0 9996 2 66822 69.9951 194.5441 0003698 270.4216 29.8156 15.74676929 3146
UTC large
Height (km)
Speed (km/s)
/
Latitude / Longitude
Inclination (degrees)
Orbital Period (minutes)
Azimuth
Elevation
Range (km)
Doppler Factor

Next 0 passes for location: London (51.5072 / 0.1276)

Sorry there are no passes over London.